Location: Little Chesterford
(52.0500°N, 0.1833°E)
Time: 05:13:25
(UTC+00:00)

Cosmos 2322 - Pass Details

Date: 26 September 2023
Orbit: 842 x 852 km, 71.0° (Epoch: 29 November)

Event Time Altitude Azimuth Distance (km) Brightness Sun altitude
Rises 19:16:24 0° 195° (SSW) 3,407 6.8 -14.1°
Reaches altitude 10° 19:18:52 10° 191° (SSW) 2,476 6.1 -14.5°
Maximum altitude 19:24:26 59° 114° (ESE) 986 3.7 -15.3°
Drops below altitude 10° 19:30:03 10° 36° (NE) 2,492 6.0 -16.1°
Sets 19:32:32 0° 33° (NNE) 3,431 6.7 -16.5°
